Location: Lavington
(51.2833°N, 1.9833°W)
Time: 18:11:30
(UTC+00:00)

ATLAS 2AS CENTAUR R/B - Pass Details

Date: 01 June 2020
Orbit: 925 x 1286 km, 63.7° (Epoch: 24 June)

Event Time Altitude Azimuth Distance (km) Brightness Sun altitude
Exits shadow 22:00:06 10° 176° (S) 3,249 4.7 -11.5°
Maximum altitude 22:07:04 35° 115° (ESE) 1,950 3.7 -12.0°
Drops below altitude 10° 22:14:04 10° 53° (NE) 3,268 5.4 -12.5°
Sets 22:17:06 0° 45° (NE) 4,212 6.1 -12.7°
